Location: Unspecified
(0.0000°N, 0.0000°E)
Time: 13:24:22
(UTC+00:00)

PAYLOAD D - Pass Details

Date: 19 June 2023
Orbit: 1411 x 1417 km, 82.5° (Epoch: 23 September)

Event Time Altitude Azimuth Distance (km) Brightness Sun altitude
Rises 18:42:55 0° 195° (SSW) 4,482 10.4 -9.5°
Reaches altitude 10° 18:45:50 10° 199° (SSW) 3,505 9.9 -10.2°
Maximum altitude 18:53:51 52° 273° (W) 1,712 8.7 -12.0°
Drops below altitude 10° 19:01:53 10° 347° (NNW) 3,497 10.4 -13.8°
Sets 19:04:49 0° 352° (N) 4,472 10.9 -14.5°
